GW3643 Weather Reports


Display with metric or nautical units.
time (UTC)temp
F
wind
direction
speed
MPH
gust
MPH
rain 1hr
in
rain 24hr
in
rain mn
in
humidity
%
barometer
mb
20260906082122 81 0 0.0 3.0 0.00 0.00 0.00 33 1023.9
20260906081554 81 62 0.0 3.0 0.00 0.00 0.00 33 1023.9
20260906081046 80 358 0.0 5.0 0.00 0.00 0.00 34 1023.8
20260906080546 79 358 1.0 5.0 0.00 0.00 0.00 35 1023.9
20260906075543 79 49 0.0 5.0 0.00 0.00 0.00 35 1023.9
20260906075047 78 0 0.0 5.0 0.00 0.00 0.00 35 1023.9
20260906074600 78 0 0.0 5.0 0.00 0.00 0.00 35 1023.9
20260906074043 78 11 0.0 3.0 0.00 0.00 0.00 35 1023.8
20260906073545 79 0 0.0 3.0 0.00 0.00 0.00 35 1023.9
20260906073104 79 0 0.0 3.0 0.00 0.00 0.00 35 1023.8
20260906072545 79 0 0.0 2.0 0.00 0.00 0.00 35 1023.8
20260906072046 79 0 0.0 2.0 0.00 0.00 0.00 35 1023.8
20260906071555 79 3 0.0 1.0 0.00 0.00 0.00 34 1023.7
20260906071045 79 0 0.0 3.0 0.00 0.00 0.00 35 1023.6
20260906070546 78 0 0.0 3.0 0.00 0.00 0.00 36 1023.7
20260906070058 78 19 1.0 3.0 0.00 0.00 0.00 35 1023.6
20260906065544 78 7 1.0 3.0 0.00 0.00 0.00 35 1023.5
20260906065045 78 12 1.0 5.0 0.00 0.00 0.00 36 1023.6
20260906064554 78 26 2.0 5.0 0.00 0.00 0.00 36 1023.5
20260906064046 78 1 0.0 4.0 0.00 0.00 0.00 36 1023.5
20260906063543 77 0 0.0 4.0 0.00 0.00 0.00 36 1023.5
20260906063104 77 0 1.0 4.0 0.00 0.00 0.00 36 1023.6
20260906062547 77 33 0.0 2.0 0.00 0.00 0.00 36 1023.5
20260906062045 77 0 0.0 2.0 0.00 0.00 0.00 36 1023.4
20260906061607 77 0 0.0 2.0 0.00 0.00 0.00 36 1023.4
20260906061049 77 0 0.0 2.0 0.00 0.00 0.00 36 1023.4
20260906060546 77 0 0.0 2.0 0.00 0.00 0.00 36 1023.3
20260906060107 77 0 0.0 2.0 0.00 0.00 0.00 36 1023.2
20260906055550 77 0 0.0 1.0 0.00 0.00 0.00 36 1023.1
20260906055046 77 0 0.0 3.0 0.00 0.00 0.00 36 1023.1
20260906054602 77 0 0.0 3.0 0.00 0.00 0.00 37 1023.1
20260906054046 77 8 0.0 4.0 0.00 0.00 0.00 36 1023.0
20260906053543 77 0 1.0 4.0 0.00 0.00 0.00 36 1023.0
20260906053103 77 0 1.0 4.0 0.00 0.00 0.00 36 1022.9
20260906052548 78 15 1.0 4.0 0.00 0.00 0.00 36 1022.8
20260906052044 78 0 0.0 2.0 0.00 0.00 0.00 36 1022.9
20260906051558 78 0 0.0 4.0 0.00 0.00 0.00 35 1022.8
20260906051042 78 35 0.0 4.0 0.00 0.00 0.00 35 1022.9
20260906050542 78 41 0.0 3.0 0.00 0.00 0.00 35 1022.9
20260906050055 78 40 0.0 3.0 0.00 0.00 0.00 35 1022.8
20260906045542 78 0 0.0 3.0 0.00 0.00 0.00 36 1022.9
20260906045042 78 83 0.0 3.0 0.00 0.00 0.00 36 1022.9
20260906044600 78 0 0.0 4.0 0.00 0.00 0.00 36 1022.9
20260906044043 78 7 0.0 4.0 0.00 0.00 0.00 36 1022.9
20260906043544 78 0 0.0 3.0 0.00 0.00 0.00 36 1023.0
20260906043055 78 0 0.0 3.0 0.00 0.00 0.00 36 1022.9
20260906042544 78 30 1.0 3.0 0.00 0.00 0.00 36 1022.9
20260906042043 78 0 0.0 4.0 0.00 0.00 0.00 36 1023.0
20260906041553 78 0 0.0 4.0 0.00 0.00 0.00 36 1023.0
20260906041045 78 0 1.0 5.0 0.00 0.00 0.00 36 1022.8
20260906040542 78 0 1.0 5.0 0.00 0.00 0.00 36 1022.8
20260906040053 78 10 2.0 4.0 0.00 0.00 0.00 36 1022.8
20260906035543 78 25 1.0 4.0 0.00 0.00 0.00 36 1022.9
20260906035043 78 356 0.0 6.0 0.00 0.00 0.00 36 1022.9
20260906034558 78 0 0.0 8.0 0.00 0.00 0.00 36 1022.9
20260906034043 79 358 3.0 8.0 0.00 0.00 0.00 35 1022.7
20260906033548 80 0 1.0 7.0 0.00 0.00 0.00 34 1023.3
20260906033101 79 236 1.0 7.0 0.00 0.00 0.00 34 1022.8
20260906032542 79 69 2.0 7.0 0.00 0.00 0.00 34 1022.4
20260906032043 79 0 0.0 3.0 0.00 0.00 0.00 35 1022.6
20260906031558 79 0 0.0 3.0 0.00 0.00 0.00 36 1023.1
20260906031043 79 0 0.0 3.0 0.00 0.00 0.00 35 1023.2
20260906030543 79 341 0.0 3.0 0.00 0.00 0.00 35 1023.2
20260906030056 80 355 0.0 2.0 0.00 0.00 0.00 34 1023.2
20260906025541 80 0 0.0 1.0 0.00 0.00 0.00 33 1023.2
20260906025044 80 0 0.0 1.0 0.00 0.00 0.00 33 1023.1
20260906024555 80 0 0.0 2.0 0.00 0.00 0.00 33 1023.0
20260906024042 80 126 0.0 3.0 0.00 0.00 0.00 33 1022.9
20260906023543 80 0 0.0 3.0 0.00 0.00 0.00 33 1022.8
20260906023052 80 0 0.0 3.0 0.00 0.00 0.00 33 1022.8
20260906022544 80 0 0.0 1.0 0.00 0.00 0.00 33 1022.9
20260906022043 80 117 0.0 2.0 0.00 0.00 0.00 33 1022.9
20260906021600 80 0 0.0 4.0 0.00 0.00 0.00 33 1022.9
20260906021046 80 0 0.0 4.0 0.00 0.00 0.00 33 1022.9
20260906020545 80 13 1.0 4.0 0.00 0.00 0.00 33 1022.8
20260906020056 80 0 0.0 5.0 0.00 0.00 0.00 33 1022.9
20260906015546 80 0 1.0 5.0 0.00 0.00 0.00 33 1022.8
20260906015044 80 8 1.0 5.0 0.00 0.00 0.00 33 1022.8
20260906014603 80 0 0.0 4.0 0.00 0.00 0.00 33 1022.8
20260906014047 80 101 1.0 4.0 0.00 0.00 0.00 33 1022.9
20260906013546 80 144 1.0 4.0 0.00 0.00 0.00 33 1022.8
20260906013058 80 162 0.0 5.0 0.00 0.00 0.00 33 1022.8
20260906012542 80 0 1.0 6.0 0.00 0.00 0.00 33 1022.9
20260906012044 80 149 1.0 6.0 0.00 0.00 0.00 33 1022.9
20260906011607 80 78 0.0 4.0 0.00 0.00 0.00 33 1023.0
20260906011046 80 59 0.0 5.0 0.00 0.00 0.00 33 1023.1
20260906010545 80 134 2.0 5.0 0.00 0.00 0.00 33 1023.1
20260906010057 81 183 1.0 7.0 0.00 0.00 0.00 33 1023.2
20260906005546 81 98 2.0 7.0 0.00 0.00 0.00 32 1023.0
20260906005046 81 175 1.0 5.0 0.00 0.00 0.00 33 1023.0
20260906004601 81 207 0.0 7.0 0.00 0.00 0.00 32 1023.0
20260906004046 81 189 1.0 7.0 0.00 0.00 0.00 32 1022.9
20260906003544 81 24 1.0 5.0 0.00 0.00 0.00 32 1022.9
20260906003058 81 0 0.0 6.0 0.00 0.00 0.00 32 1023.0
20260906002543 81 0 1.0 6.0 0.00 0.00 0.00 32 1022.9
20260906002046 81 0 1.0 6.0 0.00 0.00 0.00 32 1023.0
20260906001601 81 193 0.0 6.0 0.00 0.00 0.00 32 1022.9
20260906001048 81 69 2.0 5.0 0.00 0.00 0.00 32 1023.0
20260906000546 81 155 1.0 7.0 0.00 0.00 0.00 32 1022.9
20260906000100 82 117 2.0 7.0 0.00 0.00 0.00 32 1022.9
20260905235545 82 155 1.0 6.0 0.00 0.00 0.00 31 1023.0
20260905235045 82 161 1.0 8.0 0.00 0.00 0.00 31 1022.9
20260905234606 82 122 2.0 8.0 0.00 0.00 0.00 31 1022.9
20260905234045 82 180 3.0 8.0 0.00 0.00 0.00 31 1022.8
20260905233544 83 0 2.0 8.0 0.00 0.00 0.00 30 1022.9
20260905233123 83 136 3.0 8.0 0.00 0.00 0.00 30 1022.9
20260905232545 83 166 2.0 9.0 0.00 0.00 0.00 30 1022.7
20260905232045 83 128 2.0 9.0 0.00 0.00 0.00 30 1022.7
20260905231557 83 100 2.0 7.0 0.00 0.00 0.00 30 1022.8
20260905231045 83 28 2.0 7.0 0.00 0.00 0.00 30 1022.8
20260905230545 84 124 1.0 6.0 0.00 0.00 0.00 29 1022.9
20260905230059 84 89 2.0 6.0 0.00 0.00 0.00 29 1022.9
20260905225544 84 24 2.0 9.0 0.00 0.00 0.00 29 1022.8
20260905225044 84 38 3.0 9.0 0.00 0.00 0.00 29 1022.9
20260905224611 84 134 2.0 8.0 0.00 0.00 0.00 29 1022.9
20260905224043 85 118 0.0 4.0 0.00 0.00 0.00 28 1022.9
20260905223545 85 0 1.0 4.0 0.00 0.00 0.00 28 1023.0
20260905223108 85 0 2.0 4.0 0.00 0.00 0.00 28 1023.0
20260905222546 85 134 1.0 4.0 0.00 0.00 0.00 27 1023.0
20260905222048 85 67 0.0 4.0 0.00 0.00 0.00 27 1023.0
20260905221601 85 66 1.0 4.0 0.00 0.00 0.00 27 1022.9
20260905221048 85 0 0.0 5.0 0.00 0.00 0.00 27 1023.0
20260905220542 85 0 1.0 6.0 0.00 0.00 0.00 27 1023.1
20260905220056 85 34 2.0 6.0 0.00 0.00 0.00 27 1023.0
20260905215543 85 7 2.0 6.0 0.00 0.00 0.00 27 1023.1
20260905215043 85 25 2.0 4.0 0.00 0.00 0.00 27 1023.1
20260905214602 85 22 2.0 4.0 0.00 0.00 0.00 27 1023.1
20260905214047 85 0 0.0 3.0 0.00 0.00 0.00 27 1023.0
20260905213545 85 359 0.0 3.0 0.00 0.00 0.00 27 1023.0
20260905213101 84 13 1.0 3.0 0.00 0.00 0.00 27 1022.9
20260905212544 84 351 0.0 3.0 0.00 0.00 0.00 28 1023.0
20260905212042 84 0 1.0 3.0 0.00 0.00 0.00 29 1023.1
20260905211603 84 0 0.0 2.0 0.00 0.00 0.00 29 1023.1
20260905211044 84 0 0.0 2.0 0.00 0.00 0.00 30 1023.1
20260905210543 84 351 0.0 2.0 0.00 0.00 0.00 30 1023.0
20260905205546 84 307 0.0 2.0 0.00 0.00 0.00 30 1023.0
20260905205048 84 0 0.0 2.0 0.00 0.00 0.00 30 1023.0
20260905204602 84 321 0.0 2.0 0.00 0.00 0.00 30 1023.0
20260905204046 84 299 0.0 2.0 0.00 0.00 0.00 30 1023.1
20260905203550 84 303 0.0 2.0 0.00 0.00 0.00 29 1023.1
20260905203059 84 0 0.0 2.0 0.00 0.00 0.00 29 1023.0
20260905202546 84 295 0.0 2.0 0.00 0.00 0.00 29 1023.0
20260905202043 85 0 0.0 4.0 0.00 0.00 0.00 29 1023.0
20260905201607 85 313 0.0 4.0 0.00 0.00 0.00 29 1022.9
20260905201048 85 0 0.0 3.0 0.00 0.00 0.00 28 1022.9
20260905200542 85 0 0.0 4.0 0.00 0.00 0.00 28 1023.0
20260905200107 85 0 0.0 8.0 0.00 0.00 0.00 28 1022.9
20260905195549 85 0 1.0 8.0 0.00 0.00 0.00 28 1022.8
20260905195046 85 292 1.0 5.0 0.00 0.00 0.00 28 1022.8
20260905194604 85 0 0.0 4.0 0.00 0.00 0.00 29 1022.9
20260905194048 85 311 0.0 4.0 0.00 0.00 0.00 29 1022.8
20260905193543 85 277 0.0 4.0 0.00 0.00 0.00 29 1022.7
20260905193100 86 0 0.0 4.0 0.00 0.00 0.00 29 1022.7
20260905192546 85 249 1.0 6.0 0.00 0.00 0.00 29 1022.7
20260905192044 85 0 0.0 6.0 0.00 0.00 0.00 29 1022.5
20260905191610 86 307 0.0 4.0 0.00 0.00 0.00 29 1022.4
20260905191042 86 0 0.0 6.0 0.00 0.00 0.00 29 1022.4
20260905190547 85 163 1.0 6.0 0.00 0.00 0.00 29 1022.4
20260905190134 86 328 1.0 9.0 0.00 0.00 0.00 29 1022.4
20260905185547 86 237 1.0 9.0 0.00 0.00 0.00 29 1022.4
20260905185044 86 254 2.0 8.0 0.00 0.00 0.00 28 1022.3
20260905184621 86 234 1.0 7.0 0.00 0.00 0.00 28 1022.3
20260905184046 87 225 1.0 7.0 0.00 0.00 0.00 28 1022.2
20260905183549 87 215 0.0 7.0 0.00 0.00 0.00 27 1022.1
20260905183109 86 291 1.0 4.0 0.00 0.00 0.00 27 1022.2
20260905182544 87 257 0.0 4.0 0.00 0.00 0.00 27 1022.1
20260905182046 87 0 0.0 4.0 0.00 0.00 0.00 27 1022.1
20260905181602 87 0 1.0 4.0 0.00 0.00 0.00 27 1022.2
20260905181047 87 149 0.0 4.0 0.00 0.00 0.00 27 1022.1
20260905180546 87 0 1.0 4.0 0.00 0.00 0.00 28 1022.1
20260905180059 87 231 1.0 6.0 0.00 0.00 0.00 27 1022.1
20260905175546 87 0 1.0 7.0 0.00 0.00 0.00 27 1022.1
20260905175044 87 241 2.0 7.0 0.00 0.00 0.00 27 1022.2
20260905174604 88 220 2.0 7.0 0.00 0.00 0.00 26 1022.2
20260905174043 88 226 1.0 5.0 0.00 0.00 0.00 26 1021.9
20260905173543 88 351 1.0 10.0 0.00 0.00 0.00 26 1021.9
20260905173118 88 288 1.0 10.0 0.00 0.00 0.00 26 1022.0
20260905172546 89 265 3.0 10.0 0.00 0.00 0.00 26 1022.1
20260905172049 89 0 1.0 7.0 0.00 0.00 0.00 26 1022.1
20260905171604 89 235 2.0 7.0 0.00 0.00 0.00 25 1022.0
20260905171049 89 0 2.0 7.0 0.00 0.00 0.00 25 1022.0
20260905170549 89 210 0.0 7.0 0.00 0.00 0.00 26 1021.9
20260905170123 90 3 0.0 7.0 0.00 0.00 0.00 25 1021.9
20260905165542 90 294 2.0 7.0 0.00 0.00 0.00 25 1021.9
20260905165046 90 187 1.0 5.0 0.00 0.00 0.00 25 1022.0
20260905164604 90 225 1.0 4.0 0.00 0.00 0.00 25 1021.9
20260905164057 90 221 0.0 6.0 0.00 0.00 0.00 24 1021.9
20260905163541 90 0 0.0 9.0 0.00 0.00 0.00 24 1021.9
20260905163100 90 228 2.0 9.0 0.00 0.00 0.00 24 1021.8
20260905162544 90 292 1.0 8.0 0.00 0.00 0.00 24 1021.7
20260905162043 90 9 1.0 8.0 0.00 0.00 0.00 24 1021.8
20260905161558 90 270 3.0 7.0 0.00 0.00 0.00 24 1021.9
20260905161044 91 199 2.0 7.0 0.00 0.00 0.00 24 1021.9
20260905160544 91 208 1.0 9.0 0.00 0.00 0.00 23 1021.9
20260905160058 91 7 0.0 9.0 0.00 0.00 0.00 24 1022.1
20260905155547 91 270 1.0 9.0 0.00 0.00 0.00 23 1022.1
20260905155043 91 298 1.0 8.0 0.00 0.00 0.00 23 1022.1
20260905154606 91 336 1.0 8.0 0.00 0.00 0.00 23 1022.0
20260905154042 91 6 2.0 7.0 0.00 0.00 0.00 23 1022.0
20260905153542 91 300 2.0 6.0 0.00 0.00 0.00 23 1021.9
20260905153102 91 269 1.0 8.0 0.00 0.00 0.00 22 1022.0
20260905152543 91 293 2.0 8.0 0.00 0.00 0.00 22 1022.1
20260905152043 92 235 2.0 8.0 0.00 0.00 0.00 22 1022.2
20260905151601 92 264 2.0 6.0 0.00 0.00 0.00 22 1022.0
20260905151042 92 222 1.0 6.0 0.00 0.00 0.00 22 1021.9
20260905150543 92 355 1.0 6.0 0.00 0.00 0.00 22 1021.8
20260905150055 92 203 1.0 8.0 0.00 0.00 0.00 22 1021.7
20260905145544 92 320 2.0 8.0 0.00 0.00 0.00 22 1021.8
20260905145044 93 302 1.0 8.0 0.00 0.00 0.00 22 1021.7
20260905144603 93 302 2.0 9.0 0.00 0.00 0.00 22 1021.8
20260905144043 93 355 2.0 9.0 0.00 0.00 0.00 22 1021.8
20260905143542 93 87 1.0 9.0 0.00 0.00 0.00 22 1021.7
20260905143056 93 68 1.0 9.0 0.00 0.00 0.00 22 1021.8
20260905142545 93 297 1.0 10.0 0.00 0.00 0.00 22 1021.8
20260905142043 94 161 3.0 10.0 0.00 0.00 0.00 21 1021.9
20260905141619 94 355 2.0 9.0 0.00 0.00 0.00 21 1022.1
20260905141042 94 282 3.0 11.0 0.00 0.00 0.00 21 1022.2
20260905140543 94 330 2.0 11.0 0.00 0.00 0.00 20 1022.3
20260905140056 95 284 3.0 11.0 0.00 0.00 0.00 21 1022.3
20260905135545 95 219 1.0 8.0 0.00 0.00 0.00 21 1022.3
20260905135046 94 285 2.0 9.0 0.00 0.00 0.00 22 1022.4
20260905134602 93 314 2.0 9.0 0.00 0.00 0.00 22 1022.4
20260905134043 93 186 2.0 8.0 0.00 0.00 0.00 22 1022.5
20260905133543 93 3 2.0 8.0 0.00 0.00 0.00 21 1022.6
20260905133101 93 91 2.0 8.0 0.00 0.00 0.00 21 1022.6
20260905132546 93 28 2.0 10.0 0.00 0.00 0.00 21 1022.7
20260905132045 93 265 2.0 10.0 0.00 0.00 0.00 20 1022.7
20260905131629 94 319 3.0 9.0 0.00 0.00 0.00 20 1022.7
20260905131048 94 0 2.0 7.0 0.00 0.00 0.00 20 1022.8
20260905130546 94 329 1.0 7.0 0.00 0.00 0.00 20 1022.8
20260905130114 94 0 1.0 9.0 0.00 0.00 0.00 21 1022.8
20260905125543 94 275 2.0 9.0 0.00 0.00 0.00 21 1022.9
20260905125043 94 0 2.0 8.0 0.00 0.00 0.00 23 1022.8
20260905124558 94 224 2.0 8.0 0.00 0.00 0.00 23 1022.9
20260905124042 94 225 1.0 7.0 0.00 0.00 0.00 24 1022.9
20260905123543 93 256 0.0 3.0 0.00 0.00 0.00 26 1022.9
20260905123100 94 20 0.0 3.0 0.00 0.00 0.00 26 1023.0
20260905122546 94 341 0.0 4.0 0.00 0.00 0.00 26 1023.0
20260905122048 94 288 1.0 7.0 0.00 0.00 0.00 26 1023.0
20260905121600 94 204 1.0 7.0 0.00 0.00 0.00 26 1023.0
20260905121047 94 234 1.0 7.0 0.00 0.00 0.00 26 1023.0
20260905120547 93 220 1.0 5.0 0.00 0.00 0.00 26 1023.0
20260905120058 93 0 0.0 6.0 0.00 0.00 0.00 26 1023.0
20260905115543 92 230 1.0 6.0 0.00 0.00 0.00 26 1023.0
20260905115043 91 305 1.0 6.0 0.00 0.00 0.00 27 1023.1
20260905114603 90 200 1.0 4.0 0.00 0.00 0.00 28 1023.1
20260905114043 91 346 0.0 3.0 0.00 0.00 0.00 27 1023.0
20260905113548 91 0 0.0 3.0 0.00 0.00 0.00 27 1023.2
20260905113112 92 213 0.0 3.0 0.00 0.00 0.00 27 1023.2
20260905112548 91 327 1.0 3.0 0.00 0.00 0.00 27 1023.3
20260905112050 92 321 0.0 6.0 0.00 0.00 0.00 26 1023.2
20260905111603 91 319 2.0 6.0 0.00 0.00 0.00 27 1023.2
20260905111044 90 0 2.0 6.0 0.00 0.00 0.00 27 1023.2
20260905110542 89 0 2.0 6.0 0.00 0.00 0.00 28 1023.1
20260905110055 89 141 1.0 4.0 0.00 0.00 0.00 28 1023.1
20260905105544 88 200 1.0 4.0 0.00 0.00 0.00 28 1023.2
20260905105044 88 0 0.0 5.0 0.00 0.00 0.00 28 1023.3
20260905104604 88 182 1.0 7.0 0.00 0.00 0.00 28 1023.2
20260905104045 88 188 1.0 7.0 0.00 0.00 0.00 28 1023.3
20260905103546 89 177 2.0 7.0 0.00 0.00 0.00 27 1023.3
20260905103056 89 210 1.0 8.0 0.00 0.00 0.00 27 1023.3
20260905102544 89 205 3.0 8.0 0.00 0.00 0.00 27 1023.4
20260905102046 89 236 2.0 8.0 0.00 0.00 0.00 27 1023.4
20260905101633 88 224 3.0 8.0 0.00 0.00 0.00 28 1023.4
20260905101047 87 179 3.0 6.0 0.00 0.00 0.00 29 1023.4
20260905100543 88 170 2.0 6.0 0.00 0.00 0.00 28 1023.4
20260905100055 88 0 0.0 5.0 0.00 0.00 0.00 28 1023.4
20260905095542 88 0 1.0 6.0 0.00 0.00 0.00 28 1023.5
20260905095042 88 203 2.0 6.0 0.00 0.00 0.00 29 1023.5
20260905094555 88 116 2.0 5.0 0.00 0.00 0.00 28 1023.5
20260905094043 87 167 1.0 6.0 0.00 0.00 0.00 29 1023.4
20260905093544 87 126 2.0 8.0 0.00 0.00 0.00 30 1023.4
20260905093058 85 0 1.0 8.0 0.00 0.00 0.00 31 1023.5
20260905092544 85 157 2.0 7.0 0.00 0.00 0.00 31 1023.3
20260905092044 85 45 1.0 5.0 0.00 0.00 0.00 31 1023.4
20260905091609 85 145 1.0 5.0 0.00 0.00 0.00 31 1023.4
20260905091046 86 43 1.0 4.0 0.00 0.00 0.00 30 1023.2
20260905090542 85 0 1.0 4.0 0.00 0.00 0.00 30 1023.3
20260905090055 84 0 1.0 5.0 0.00 0.00 0.00 31 1023.3
20260905085543 84 197 1.0 6.0 0.00 0.00 0.00 31 1023.2
20260905085043 85 8 2.0 8.0 0.00 0.00 0.00 30 1023.2
20260905084607 85 341 2.0 8.0 0.00 0.00 0.00 29 1023.2
20260905084042 84 8 1.0 7.0 0.00 0.00 0.00 29 1023.0
20260905083543 84 0 1.0 7.0 0.00 0.00 0.00 29 1023.0
20260905083059 84 109 2.0 6.0 0.00 0.00 0.00 29 1023.0
20260905082543 83 43 0.0 8.0 0.00 0.00 0.00 30 1023.0